Regional Weather Roundup
Issued by NWS Sterling, VA

Home | Current Version | Previous Version | Text Only | Print | Product List | Glossary Off
Versions: 1 2 3 4 5 6 7 8 9 10 11 12 13 14 15 16 17 18 19 20 21 22 23 24 25 26 27 28 29 30 31 32 33 34 35 36 37 38 39 40 41 42 43 44 45 46 47 48 49 50

000
ASUS41 KLWX 041110
RWRLWX

REGIONAL WEATHER ROUNDUP
NATIONAL WEATHER SERVICE BALTIMORE MD/WASHINGTON DC
700 AM EDT TUE AUG 04 2015

Note: "FAIR" indicates few or no clouds below 12,000 feet
with no significant weather and/or obstructions to visibility.
 TC=TEMPERATURE CELSIUS

 * =Non NWS site. Station does not report precipitation (e.g. rain,
    snow, etc.), thunder, or fog.

DCZ001-MDZ009-015-VAZ040>042-051-053>054-041200-
WASHINGTON METRO

CITY           SKY/WX    TMP DP  RH WIND       PRES   REMARKS
WASHINGTON NAT MOCLDY    79  61  53 NE3       29.92R
DULLES         MOCLDY    67  62  84 CALM      29.92R
ANDREWS AFB    PTCLDY    72  61  69 S6        29.92R
FT BELVOIR     MOCLDY    71  65  79 CALM      29.93R
COLLEGE PARK*  PTCLDY    70  63  78 CALM      29.91R
LEESBURG*      PTCLDY    66  66 100 SW5       29.93S
MANASSAS*      CLEAR    N/A N/A N/A CALM      29.92R
GAITHERSBURG*  PTCLDY    64  63  94 CALM      29.96R

$$

MDZ006>007-011-014-041200-
BALTIMORE METRO

CITY           SKY/WX    TMP DP  RH WIND       PRES   REMARKS
BWI AIRPORT    MOCLDY    67  65  93 CALM      29.90R
MD SCIENCE CTR   N/A     71  67  87 MISG      29.91R
MARTIN STATE   MOCLDY    72  72 100 CALM      29.90S
ANNAPOLIS      MOCLDY    75  63  66 NW5       29.90R
FORT MEADE*    MOCLDY    64  63  94 CALM      29.93R

$$

MDZ012-015-019>023-041200-
MARYLAND EASTERN SHORE

CITY           SKY/WX    TMP DP  RH WIND       PRES   REMARKS
OCEAN CITY     PTCLDY    78  74  87 SW10      29.93R
SALISBURY      PTCLDY    77  74  90 SW8       29.92S
BAY BRIDGE AP*   N/A     73  64  73 NW3       29.90S
CAMBRIDGE*     PTCLDY    77  72  83 W5        29.93R
EASTON*        PTCLDY    79  73  83 SW6       29.95R

$$

MDZ017>025-041200-
SOUTHERN MARYLAND

CITY           SKY/WX    TMP DP  RH WIND       PRES   REMARKS
PATUXENT RIVER MOCLDY    77  71  82 SW13      29.91R
ST INIGOES     CLEAR     78  72  81 S14       29.91S
LEONARDTOWN*   PTCLDY    73  70  88 CALM      29.95R

$$

MDZ003>005-041200-
NORTH CENTRAL MARYLAND

CITY           SKY/WX    TMP DP  RH WIND       PRES   REMARKS
FREDERICK*     CLEAR     66  66 100 S5        29.94R
HAGERSTOWN APT CLEAR     70  64  81 SW5       29.92R
WESTMINSTER*   PTCLDY    70  66  88 CALM      29.91R

$$

MDZ501>502-041200-
WESTERN MARYLAND

CITY           SKY/WX    TMP DP  RH WIND       PRES   REMARKS
OAKLAND*       PTCLDY    61 N/A N/A W5        30.03R
CUMBERLAND*    PTCLDY    64  64 100 CALM      29.99R

$$

VAZ025>031-041200-
SHENANDOAH VALLEY

CITY           SKY/WX    TMP DP  RH WIND       PRES   REMARKS
WINCHESTER*    CLEAR     68  66  94 SW3       29.94R
FRONT ROYAL*   PTSUNNY   66  63  88 CALM      29.93R
LURAY*         FAIR      68  64  88 CALM      29.95R
NEW MARKET*    FAIR      64  63  97 CALM      29.95R
STAUNTON*      CLEAR     66  62  87 CALM      29.99R
WAYNESBORO*    FAIR      73  59  62 W5        29.99R

$$

WVZ021-048>050-054>055-041200-
EASTERN WEST VIRGINIA PANHANDLE

CITY           SKY/WX    TMP DP  RH WIND       PRES   REMARKS
MARTINSBURG    CLEAR     65  65 100 SW3       29.93R
PETERSBURG*    CLOUDY    65  64  96 CALM      29.97R FOG

$$

VAZ036>039-050-041200-
CENTRAL FOOTHILLS

CITY           SKY/WX    TMP DP  RH WIND       PRES   REMARKS
CHARLOTTESVILL PTCLDY    70  64  81 S6        29.94R
CULPEPER*      MOCLDY    68  66  92 CALM      29.94R
ORANGE*        PTCLDY    72  64  78 S7        29.95R
GORDONSVILLE*  FAIR      66  64  94 CALM      29.94R
WARRENTON*     FAIR      71  69  92 SE6       29.92R

$$

VAZ055>057-041200-
NORTH AND CENTRAL PIEDMONT

CITY           SKY/WX    TMP DP  RH WIND       PRES   REMARKS
FREDERICKSBRG* MOCLDY    76  70  81 CALM      29.92R
STAFFORD*      MOCLDY    71  67  85 CALM      29.97R

$$

NCZ024-NYZ072-PAZ021-071-VAZ022-071-041200-
OTHER REGIONAL OBSERVATIONS

CITY           SKY/WX    TMP DP  RH WIND       PRES   REMARKS
NEW YORK CITY  CLOUDY    69  66  90 VRB6      29.89R
PHILADELPHIA   LGT RAIN  76  67  73 W8        29.89R
PITTSBURGH     PTCLDY    62  59  90 SW3       29.96R
ROANOKE        MOCLDY    75  60  59 CALM      30.01R
RICHMOND       MOCLDY    75  69  81 S8        29.95R
RALEIGH        CLOUDY    75  72  90 CALM      30.00R

$$

ANZ530>537-041200-
MARINE OBSERVATIONS

STATION/POSITION TIME  TEMP    WIND        PRES
                       AIR SEA DIR/SP/G
                 (UTC) (F)     (DEG/KT/KT) (MB)
THOMAS PT LIGHT  NOT AVBL
BALT KEY BRIDGE  1000   71      30/  7/ 10 1011.9R
COVE POINT       1000   77     240/ 12/ 15 1012.9R
LEWISETTA        1000   78 84  220/ 10/ 14 1012.5R
SOLOMONS ISLAND  1000      83                N/A
PINEY POINT      1000          230/ 18/ 19   N/A

$$




USA.gov is the U.S. government's official web portal to all federal, state and local government web resources and services.